This is the latest recevied weather packets stored in our database for station/object KC9DRE. If no packets are shown the sender has not sent any weather packets the latest 10 day(s).
| Time | Temp. | Humidity | Pressure | Rain* | Wind** | Luminosity | Snow |
|---|---|---|---|---|---|---|---|
| 1788094333 | 22.22° C | 96% | 1019.9 hPa | 0 mm | - | 97 W/m² | - |
| 1788094030 | 21.67° C | 98% | 1020.2 hPa | 0 mm | - | 89 W/m² | - |
| 1788093726 | 20.56° C | 99% | 1020.1 hPa | 0 mm | - | 82 W/m² | - |
| 1788093423 | 20.56° C | 99% | 1020.2 hPa | 0 mm | - | 74 W/m² | - |
| 1788093119 | 20° C | 99% | 1019.9 hPa | 0 mm | - | 69 W/m² | - |
| 1788092816 | 20° C | 99% | 1020.1 hPa | 0 mm | - | 64 W/m² | - |
| 1788092511 | 19.44° C | 99% | 1020 hPa | 0 mm | - | 60 W/m² | - |
| 1788092207 | 18.89° C | 99% | 1020 hPa | 0 mm | - | 55 W/m² | - |
| 1788091906 | 18.33° C | 99% | 1020 hPa | 0 mm | - | 51 W/m² | - |
| 1788091601 | 17.22° C | 99% | 1019.8 hPa | 0 mm | - | 46 W/m² | - |
| 1788091297 | 16.67° C | 99% | 1019.8 hPa | 0 mm | - | 41 W/m² | - |
| 1788090993 | 16.11° C | 99% | 1019.7 hPa | 0 mm | - | 32 W/m² | - |
| 1788090688 | 16.11° C | 99% | 1019.8 hPa | 0 mm | - | 28 W/m² | - |
| 1788090385 | 16.11° C | 99% | 1019.7 hPa | 0 mm | - | 25 W/m² | - |
| 1788090085 | 16.11° C | 99% | 1019.9 hPa | 0 mm | - | 21 W/m² | - |
| 1788089780 | 16.11° C | 99% | 1019.8 hPa | 0 mm | - | 18 W/m² | - |
| 1788089475 | 15.56° C | 99% | 1019.7 hPa | 0 mm | - | 14 W/m² | - |
| 1788089171 | 15.56° C | 99% | 1019.8 hPa | 0 mm | - | 10 W/m² | - |
| 1788088867 | 15.56° C | 99% | 1019.7 hPa | 0 mm | - | 7 W/m² | - |
| 1788088563 | 15.56° C | 99% | 1019.6 hPa | 0 mm | - | 5 W/m² | - |
| 1788088258 | 15.56° C | 99% | 1019.5 hPa | 0 mm | - | 3 W/m² | - |
| 1788087958 | 15.56° C | 99% | 1019.7 hPa | 0 mm | - | 1 W/m² | - |
| 1788087654 | 15.56° C | 99% | 1019.5 hPa | 0 mm | - | 1 W/m² | - |
| 1788087349 | 16.11° C | 99% | 1019.4 hPa | 0 mm | - | 0 W/m² | - |
| 1788087045 | 15.56° C | 99% | 1019.5 hPa | 0 mm | - | 0 W/m² | - |
* Rain latest hour (hover to see other rain measurements)
** Current wind speed in m/s (hover to see current wind gust speed)